Retour au catalogue

USA 428

ActifMilitaireVLEO
NORAD 61651·PAYLOAD·🇺🇸 United States

Lancé Oct 24, 2024 depuis Vandenberg Space Force Base

Loading…

Prochains Passages (prochaines 24 heures)

TLE

PériméSource: Mike McCants

Époque: Aug 11, 2026, 20:29 UTC

1 61651U 24192H   26223.85358817 0.00000000  00000-0  00000-0 0    00
2 61651  70.0200 127.1033 0004000 245.9808 114.0192 14.96713205    03

Suivez USA 428 en temps réel avec AllMySat

Download on the App Store